Погода в Тарме

Россия / Иркутская область     55°58′52″N   101°17′35″E
темп.,
°C
ветер,
м/с
пор.,
м/с
влажн.,
%
обл.,
%
осадки,
мм/ч
давл.,
гПа
погр.,
м
14 августа, вс
вс1423:00+10юз11740 0.0 100810
02:00+9ююз11805 0.0 100810
05:00+8юв118038 0.0 100810
08:00+12юв1267100 0.0 1007128
11:00+16юв2349100 0.0 1006715
14:00+20ююв2444100 0.0 10051546
17:00+15ююз2474100 0.0 1005199
20:00+14ююз2386100 0.1 100476
15 августа, пн
пн1523:00+13ююз229978 2.3 100574
02:00+12юз3109528 2.3 1004413
05:00+10юз249798 0.0 100579
08:00+13юз39915 0.0 1005539
11:00+18зюз5105816 0.3 10041506
14:00+20з6104581 0.4 10032316
17:00+12з61292100 1.6 1005637
20:00+12зюз4109129 1.8 1005759
16 августа, вт
вт1623:00+10з310940 0.0 1006408
02:00+7юз22972 0.0 100620
05:00+7юз2297100 0.0 100634
08:00+10ююз25905 0.0 1006260
11:00+13з5106290 0.4 10051437
14:00+11зюз51077100 0.8 10061316
17:00+10зсз5878100 0.3 10061162
20:00+7з4990100 0.4 10081116
17 августа, ср
ср1723:00+7з4995100 0.3 10081110
02:00+7з4896100 0.6 10091104
05:00+7з3997100 0.5 1009683
08:00+7зюз4997100 0.9 1010689
11:00+7зюз4996100 0.1 1010692
14:00+8з4890100 0.1 1011795
17:00+9з4882100 0.1 1011946
20:00+8з388596 0.1 1011795
18 августа, чт
чт1823:00+7юз269393 0.0 1012331
02:00+4юз229750 0.0 101126
05:00+3юз229771 0.0 101126
08:00+7юз2485100 0.0 1010210
11:00+12зсз3459100 0.0 10091414
14:00+11сз2361100 0.1 10101193
17:00+13зсз3551100 0.1 10091559
20:00+10зсз1175100 0.2 101010